TimeCDT,TemperatureF,Dew PointF,Humidity,Sea Level PressureIn,VisibilityMPH,Wind Direction,Wind SpeedMPH,Gust SpeedMPH,PrecipitationIn,Events,Conditions,WindDirDegrees,DateUTC
12:15 AM,62.6,53.6,72,29.80,10.0,NNW,8.1,-,N/A,,Clear,330,2013-09-27 05:15:00
12:35 AM,62.6,51.8,68,29.81,10.0,NW,9.2,-,N/A,,Clear,310,2013-09-27 05:35:00
12:55 AM,60.8,51.8,72,29.81,10.0,NW,9.2,-,N/A,,Clear,320,2013-09-27 05:55:00
1:15 AM,60.8,51.8,72,29.81,10.0,NNW,6.9,-,N/A,,Clear,340,2013-09-27 06:15:00
1:35 AM,59.0,51.8,77,29.81,10.0,NNW,6.9,-,N/A,,Clear,340,2013-09-27 06:35:00
1:55 AM,59.0,51.8,77,29.81,10.0,NNW,8.1,-,N/A,,Clear,340,2013-09-27 06:55:00
2:15 AM,59.0,50.0,72,29.83,10.0,NNW,8.1,-,N/A,,Partly Cloudy,330,2013-09-27 07:15:00
2:35 AM,59.0,48.2,67,29.83,10.0,NNW,9.2,-,N/A,,Partly Cloudy,330,2013-09-27 07:35:00
2:55 AM,57.2,48.2,72,29.82,10.0,NNW,8.1,-,N/A,,Partly Cloudy,340,2013-09-27 07:55:00
3:15 AM,59.0,48.2,67,29.82,10.0,NNW,9.2,-,N/A,,Partly Cloudy,330,2013-09-27 08:15:00
3:35 AM,57.2,48.2,72,29.83,10.0,NNW,6.9,-,N/A,,Partly Cloudy,330,2013-09-27 08:35:00
3:55 AM,57.2,46.4,67,29.81,10.0,North,6.9,-,N/A,,Clear,360,2013-09-27 08:55:00
4:15 AM,57.2,48.2,72,29.81,10.0,North,6.9,-,N/A,,Partly Cloudy,360,2013-09-27 09:15:00
4:35 AM,57.2,46.4,67,29.80,10.0,North,11.5,-,N/A,,Partly Cloudy,350,2013-09-27 09:35:00
4:55 AM,57.2,44.6,63,29.80,10.0,North,6.9,-,N/A,,Partly Cloudy,360,2013-09-27 09:55:00
5:15 AM,57.2,44.6,63,29.79,10.0,North,8.1,-,N/A,,Clear,10,2013-09-27 10:15:00
5:35 AM,57.2,44.6,63,29.82,10.0,West,8.1,-,N/A,Thunderstorm,Thunderstorm,270,2013-09-27 10:35:00
5:55 AM,55.4,46.4,72,29.78,10.0,North,8.1,-,0.03,Thunderstorm,Partly Cloudy,10,2013-09-27 10:55:00
6:15 AM,53.6,46.4,77,29.78,10.0,North,12.7,-,N/A,,Clear,360,2013-09-27 11:15:00
6:35 AM,53.6,48.2,82,29.79,10.0,North,6.9,-,N/A,Thunderstorm,Thunderstorm,10,2013-09-27 11:35:00
6:55 AM,53.6,46.4,77,29.83,10.0,WNW,9.2,-,0.01,Thunderstorm,Thunderstorm,300,2013-09-27 11:55:00
7:15 AM,53.6,46.4,77,29.75,10.0,North,11.5,-,0.06,Thunderstorm,Thunderstorm,10,2013-09-27 12:15:00
7:35 AM,51.8,46.4,82,29.79,10.0,North,10.4,-,0.18,Thunderstorm,Thunderstorm,350,2013-09-27 12:35:00
7:55 AM,51.8,46.4,82,29.79,10.0,NE,6.9,-,0.18,,Mostly Cloudy,40,2013-09-27 12:55:00
8:15 AM,53.6,46.4,77,29.79,10.0,North,5.8,-,N/A,,Overcast,360,2013-09-27 13:15:00
8:35 AM,53.6,46.4,77,29.80,10.0,North,8.1,-,N/A,,Overcast,350,2013-09-27 13:35:00
8:55 AM,53.6,46.4,77,29.79,10.0,NNW,10.4,-,N/A,,Overcast,340,2013-09-27 13:55:00
9:15 AM,53.6,46.4,77,29.78,10.0,North,11.5,-,N/A,,Overcast,360,2013-09-27 14:15:00
9:35 AM,53.6,46.4,77,29.79,10.0,NNW,10.4,-,N/A,,Overcast,340,2013-09-27 14:35:00
9:55 AM,53.6,46.4,77,29.78,10.0,NNE,5.8,-,N/A,,Mostly Cloudy,30,2013-09-27 14:55:00
10:15 AM,53.6,46.4,77,29.78,10.0,NNE,5.8,-,N/A,,Mostly Cloudy,30,2013-09-27 15:15:00
10:35 AM,53.6,46.4,77,29.78,10.0,North,5.8,-,N/A,,Overcast,360,2013-09-27 15:35:00
10:55 AM,53.6,48.2,82,29.78,10.0,NNW,8.1,-,N/A,,Overcast,340,2013-09-27 15:55:00
11:15 AM,53.6,48.2,82,29.78,10.0,NNW,8.1,-,N/A,,Overcast,340,2013-09-27 16:15:00
11:35 AM,53.6,46.4,77,29.78,10.0,NNW,6.9,-,N/A,,Overcast,330,2013-09-27 16:35:00
11:55 AM,53.6,48.2,82,29.77,10.0,North,6.9,-,N/A,,Overcast,360,2013-09-27 16:55:00
12:15 PM,53.6,48.2,82,29.76,10.0,NNE,8.1,-,N/A,,Overcast,20,2013-09-27 17:15:00
12:35 PM,53.6,48.2,82,29.75,10.0,NNE,6.9,-,N/A,,Overcast,20,2013-09-27 17:35:00
12:55 PM,53.6,48.2,82,29.75,10.0,North,6.9,-,N/A,,Overcast,350,2013-09-27 17:55:00
1:15 PM,53.6,48.2,82,29.75,5.0,North,6.9,-,N/A,,Overcast,350,2013-09-27 18:15:00
1:35 PM,53.6,48.2,82,29.75,1.8,NNW,9.2,-,N/A,,Overcast,330,2013-09-27 18:35:00
1:55 PM,51.8,48.2,88,29.74,1.8,NNW,10.4,-,N/A,,Overcast,330,2013-09-27 18:55:00
2:15 PM,51.8,48.2,88,29.74,3.0,NNW,9.2,-,N/A,,Overcast,340,2013-09-27 19:15:00
2:35 PM,51.8,48.2,88,29.73,3.0,North,8.1,-,N/A,,Overcast,350,2013-09-27 19:35:00
2:55 PM,51.8,48.2,88,29.73,2.0,NNW,10.4,-,N/A,,Overcast,340,2013-09-27 19:55:00
3:15 PM,51.8,46.4,82,29.73,2.0,NNW,10.4,-,N/A,,Overcast,330,2013-09-27 20:15:00
3:35 PM,51.8,46.4,82,29.73,5.0,NNW,11.5,-,N/A,,Overcast,340,2013-09-27 20:35:00
3:55 PM,51.8,46.4,82,29.73,10.0,NNW,8.1,-,N/A,,Overcast,340,2013-09-27 20:55:00
4:15 PM,51.8,46.4,82,29.72,7.0,NNW,10.4,-,0.01,,Overcast,340,2013-09-27 21:15:00
4:35 PM,51.8,48.2,88,29.72,6.0,North,9.2,-,0.02,,Overcast,350,2013-09-27 21:35:00
4:55 PM,51.8,48.2,88,29.74,10.0,NNW,9.2,-,0.02,,Overcast,330,2013-09-27 21:55:00
5:15 PM,53.6,48.2,82,29.74,10.0,NNW,8.1,-,N/A,,Overcast,330,2013-09-27 22:15:00
5:35 PM,51.8,48.2,88,29.75,5.0,NNW,9.2,-,N/A,,Overcast,330,2013-09-27 22:35:00
5:55 PM,51.8,48.2,88,29.75,8.0,NW,6.9,-,0.02,,Overcast,310,2013-09-27 22:55:00
6:15 PM,51.8,48.2,88,29.75,8.0,NW,8.1,-,0.04,,Overcast,320,2013-09-27 23:15:00
6:35 PM,51.8,48.2,88,29.75,9.0,NNW,5.8,-,0.04,,Overcast,340,2013-09-27 23:35:00
6:55 PM,51.8,46.4,82,29.75,8.0,NNW,5.8,-,0.05,,Overcast,340,2013-09-27 23:55:00
7:15 PM,51.8,48.2,88,29.74,8.0,NNW,5.8,-,N/A,,Overcast,340,2013-09-28 00:15:00
7:35 PM,51.8,48.2,88,29.74,10.0,NNW,4.6,-,N/A,,Overcast,330,2013-09-28 00:35:00
7:55 PM,51.8,48.2,88,29.73,10.0,North,5.8,-,0.02,,Mostly Cloudy,10,2013-09-28 00:55:00
8:15 PM,51.8,46.4,82,29.75,10.0,NNW,3.5,-,N/A,,Overcast,340,2013-09-28 01:15:00
8:35 PM,51.8,46.4,82,29.75,10.0,NNW,3.5,-,N/A,,Mostly Cloudy,330,2013-09-28 01:35:00
8:55 PM,51.8,46.4,82,29.75,10.0,WNW,4.6,-,N/A,,Overcast,290,2013-09-28 01:55:00
9:15 PM,51.8,46.4,82,29.76,10.0,West,6.9,-,N/A,,Overcast,280,2013-09-28 02:15:00
9:35 PM,51.8,48.2,88,29.76,10.0,West,4.6,-,N/A,,Overcast,280,2013-09-28 02:35:00
9:55 PM,51.8,48.2,88,29.77,10.0,West,6.9,-,N/A,,Overcast,270,2013-09-28 02:55:00
10:15 PM,51.8,48.2,88,29.77,10.0,WNW,6.9,-,N/A,,Overcast,290,2013-09-28 03:15:00
10:35 PM,51.8,48.2,88,29.77,10.0,WNW,9.2,-,N/A,,Overcast,290,2013-09-28 03:35:00
10:55 PM,51.8,46.4,82,29.77,10.0,WNW,9.2,-,N/A,,Overcast,300,2013-09-28 03:55:00
11:15 PM,51.8,46.4,82,29.76,10.0,NW,9.2,-,N/A,,Overcast,310,2013-09-28 04:15:00
11:35 PM,51.8,46.4,82,29.77,10.0,WNW,5.8,-,N/A,,Overcast,290,2013-09-28 04:35:00
11:55 PM,51.8,46.4,82,29.77,10.0,WNW,6.9,-,N/A,,Overcast,300,2013-09-28 04:55:00